www.pogodaiklimat.ru

Погода и климат >> Архив погоды >> Греция >> Larissa


ПОГОДА в Larissa

  • Прогноз погоды в Larissa
  • Монитор погоды в Larissa
  • Климат города

АРХИВ ПОГОДЫ в Larissa

Время (UTC), дата Ветер
(напр.,м/с)
 
Видим.   Явления Облачность Т
(С)
Тd
(С)
f
(%)
Тe
(С)
Тes
(С)
Комфортность P
(гПа)
Po
(гПа)
Тmin
(С)
Tmax
(С)
R
(мм)
R24
(мм)
S
(см)
15 9.10 В 5
{7}
10 км 5/3 1050 м
[Cu hum Ac trans]
+22.4 +11.0 48 +24 +25 комфорт 1019.1 1010.9
18 9.10 В 4
{7}
10 км 5/3 1050 м
[Cu hum Ac trans]
+17.2 +10.2 63 +17 +17 1020.8 1012.4 +23.8
21 9.10 штиль 0
{6}
10 км 4/3 1000 м
[Cu hum Ac trans]
+14.8 +10.6 76 +15 +15 1022.3 1013.9
00 10.10 штиль 0
{3}
10 км 4/3 1000 м
[Cu hum Ac trans]
+12.8 +10.0 83 +12 +12 1022.5 1014.0
03 10.10 штиль 0
{3}
10 км 3/3 1000 м
[Cu hum Ac trans]
+9.4 +7.9 90 +9 +9 1022.5 1013.9
06 10.10 штиль 0
{4}
10 км 1/1 600 м
[Cu hum]
+12.4 +9.7 84 +12 +13 1023.0 1014.5 +7.7
09 10.10 штиль 0
{2}
10 км 1/1 600 м
[Cu hum]
+20.8 +10.8 53 +22 +32 комфорт 1023.3 1015.0
12 10.10 В 5
{8}
10 км 1/1 600 м
[Cu hum]
+23.6 +3.7 27 +23 +27 комфорт 1021.8 1013.6
15 10.10 В 6
{10}
10 км 1/1 600 м
[Cu hum]
+21.8 +5.3 34 +22 +23 комфорт 1021.6 1013.3
18 10.10 штиль 0
{8}
10 км 1/1 600 м
[Cu hum]
+14.4 +5.5 55 +14 +14 1022.7 1014.2 +23.6
21 10.10 штиль 0
{4}
10 км 1/1 600 м
[Cu hum]
+12.2 +8.0 75 +12 +12 1023.8 1015.3
00 11.10 штиль 0
{3}
10 км 1/1 600 м
[Cu hum]
+10.8 +7.0 77 +10 +10 1024.1 1015.5
03 11.10 штиль 0
{2}
10 км 1/1 600 м
[Cu hum]
+7.4 +5.3 87 +7 +7 1023.8 1015.1
06 11.10 штиль 0
{2}
10 км ясно +10.0 +7.2 83 +9 +10 1024.0 1015.4 +7.4
09 11.10 штиль 0
{2}
10 км 3/3 600 м
[Cu hum Ci fib]
+19.0 +7.8 48 +19 +27 1024.0 1015.6
12 11.10 В 2
{6}
10 км 3/3 600 м
[Cu hum]
+23.0 +10.4 45 +25 +31 комфорт 1021.9 1013.5
15 11.10 штиль 0
{7}
10 км 3/3 600 м
[Cu hum]
+23.4 +7.5 36 +24 +25 комфорт 1021.4 1013.0
18 11.10 В 2
{6}
10 км 3/3 600 м
[Cu hum]
+15.6 +7.2 57 +16 +16 1022.5 1013.8 +23.6
21 11.10 штиль 0
{4}
10 км 3/3 600 м
[Cu hum]
+13.0 +8.2 73 +13 +13 1023.3 1014.5
00 12.10 штиль 0
{4}
10 км 3/3 600 м
[Cu hum]
+13.4 +8.7 73 +13 +13 1023.0 1014.2
03 12.10 штиль 0
{2}
10 км 3/3 600 м
[Cu hum]
+11.8 +8.2 79 +11 +11 1022.9 1014.0
06 12.10 штиль 0 10 км 5/1 900 м
[Cu hum Ac und]
+11.0 +7.3 78 +10 +11 1023.8 1015.0 +9.4
09 12.10 штиль 0
{3}
10 км 6/1 900 м
[Cu hum Ac und]
+21.0 +10.9 52 +23 +28 комфорт 1024.2 1015.6
12 12.10 В 3
{8}
10 км 8/4 900 м
[Sc diur, vesp Ac und]
+20.4 +12.2 59 +23 +25 комфорт 1023.3 1015.0
15 12.10 штиль 0
{6}
10 км {дождь, морось} 8/4 900 м
[Sc diur, vesp Ac und]
+18.4 +12.5 68 +19 +19 1023.0 1014.7
18 12.10 штиль 0
{3}
10 км {дождь, морось} 9/4 750 м
[Sc diur, vesp Ac As]
+16.4 +12.5 78 +16 +16 1024.2 1015.8 +21.6 0.2
21 12.10 штиль 0
{4}
10 км {дождь} 9/4 750 м
[Sc diur, vesp Ac As]
+14.8 +13.5 92 +14 +14 1024.5 1016.0
00 13.10 штиль 0
{4}
10 км {дождь} 9/4 750 м
[Sc diur, vesp Ac As]
+15.0 +13.6 91 +15 +15 1023.8 1015.4 0.3
03 13.10 штиль 0
{3}
10 км 9/4 750 м
[Sc diur, vesp Ac trans]
+13.0 +11.5 91 +12 +12 1023.7 1015.2
06 13.10 штиль 0 10 км 9/4 750 м
[Sc diur, vesp Ac trans]
+14.4 +12.7 90 +14 +14 1024.0 1015.6 +13.0
09 13.10 Ю 2
{3}
10 км 5/4 750 м
[Sc diur, vesp Ac trans]
+19.8 +12.7 64 +22 +26 комфорт 1024.2 1015.9
12 13.10 В 7
{10}
10 км 4/3 600 м
[Cu hum Ac und]
+23.0 +7.3 36 +24 +25 комфорт 1022.9 1014.7
15 13.10 В 5
{10}
10 км 4/1 900 м
[Cu hum Ac und]
+21.8 +9.1 44 +23 +23 комфорт 1022.2 1014.0
18 13.10 В 3
{9}
10 км 1/1 600 м
[Cu hum]
+16.4 +9.2 62 +16 +16 1023.0 1014.7 +23.0
21 13.10 штиль 0
{6}
10 км 1/1 600 м
[Cu hum]
+14.8 +9.2 69 +15 +15 1024.3 1015.8
00 14.10 штиль 0
{2}
10 км 1/1 600 м
[Cu hum Ac lent]
+13.6 +9.1 74 +13 +13 1024.2 1015.7
03 14.10 штиль 0
{2}
10 км 1/1 600 м
[Cu hum Ac lent]
+12.4 +9.0 80 +12 +12 1023.4 1014.9
06 14.10 штиль 0 10 км 8/4 750 м
[Sc Ac und]
+13.2 +9.3 77 +13 +13 1023.5 1015.1 +11.2
09 14.10 штиль 0
{3}
8000 м слабая морось 10/6 750 м
[Sc Ac As]
+13.8 +12.2 90 +13 +15 1024.2 1015.8
12 14.10 штиль 0
{4}
10 км {морось} 8/5 750 м
[Sc Ac und]
+19.2 +11.6 61 +20 +23 1022.6 1014.3 0.1
15 14.10 штиль 0
{3}
10 км 9/4 750 м
[Sc Ac und]
+19.6 +11.1 58 +21 +21 комфорт 1021.6 1013.3
18 14.10 штиль 0
{4}
10 км 9/4 750 м
[Sc Ac und]
+17.2 +10.6 65 +17 +17 1022.5 1014.1 +20.0 0.1
21 14.10 штиль 0
{3}
10 км 9/5 750 м
[Sc Ac und]
+15.6 +11.3 76 +15 +15 1022.3 1013.9
00 15.10 штиль 0
{2}
10 км 9/5 750 м
[Sc Ac und]
+15.8 +12.7 82 +16 +16 1022.2 1013.8
03 15.10 штиль 0
{3}
10 км 9/5 750 м
[Sc Ac und]
+15.2 +12.5 84 +15 +15 1021.5 1013.1
06 15.10 ЮЗ 2 10 км 9/5 300 м
[St Ac und]
+15.2 +13.0 87 +15 +15 1021.6 1013.2 +15.0
09 15.10 ЮЗ 2
{3}
10 км 8/4 450 м
[St Ac und]
+17.0 +13.8 81 +17 +20 1022.1 1013.7
12 15.10 штиль 0
{4}
10 км 6/4 900 м
[Sc diur, vesp Ac und]
+20.0 +12.1 60 +21 +26 комфорт 1021.3 1013.1
15 15.10 В 3
{4}
10 км 6/4 900 м
[Sc diur, vesp Ac und]
+21.0 +11.0 53 +24 +24 комфорт 1020.8 1012.5
18 15.10 штиль 0
{6}
10 км 5/1 900 м
[Cu hum Ac und]
+16.2 +9.7 65 +16 +16 1021.8 1013.4 +21.9
21 15.10 штиль 0
{4}
10 км 5/1 900 м
[Cu hum Ac und]
+13.6 +10.0 79 +13 +13 1022.3 1013.8
00 16.10 штиль 0
{2}
10 км 5/1 900 м
[Cu hum Ac und]
+12.4 +10.6 89 +12 +12 1022.5 1014.1
03 16.10 штиль 0
{2}
10 км 5/1 900 м
[Cu hum Ac und]
+14.2 +10.7 79 +14 +14 1022.0 1013.6
06 16.10 штиль 0 10 км 8/3 900 м
[Cu hum Ac und]
+14.6 +11.4 81 +14 +15 1022.6 1014.1 +12.4
09 16.10 штиль 0
{2}
10 км 8/3 900 м
[Cu hum Ac und]
+19.4 +11.9 62 +20 +24 1022.7 1014.4
12 16.10 штиль 0
{5}
10 км 4/3 600 м
[Cu hum Ac und]
+22.8 +11.7 50 +25 +32 комфорт 1021.2 1013.0

 

Местоположение метеостанции Larissa (Греция): широта 39.63 долгота 22.42 высота над уровнем моря 74 м.

В архиве по умолчанию представлена погода в Larissa за последнюю неделю. Архивные данные за месяц целиком и за предыдущие месяцы, начиная с января 2011 года, Вы можете получить, выбрав интересующий диапазон дат из раскрывающегося списка и нажав кнопку "Ввод!".


*Определитесь, кто Вы:
робот инопланетянин человек

Внимание! Время в таблицах - всемирное. Для получения местного времени необходимо прибавить поправку, которая в Larissa равна 2 ч.

Смотрите также архив погоды в соседних городах и на ближайших метеорологических станциях:

Погода в Lamia (Греция) (81 км)
Погода в Kozani (Греция) (92 км)
Погода в Thessaloniki (Греция) (110 км)
Погода в Kastoria (Греция) (133 км)
Погода в Ioannina (Греция) (137 км)
Погода в Florina (Греция) (154 км)
Погода в Gevgelija (Македония) (169 км)
Погода в Korca (Албания) (177 км)
Погода в Pretor (Македония) (178 км)
Погода в Bitola (Македония) (181 км)

Пояснения к столбцам:

Ветер - указаны скорость ветра в м/с - средняя за 10 мин, порывы в срок и между сроками (в фигурных скобках) и направление, откуда дует ветер: С - северный, СВ - северо-восточный, В - восточный, ЮВ - юго-восточный, Ю - южный, ЮЗ - юго-западный, З - западный, СЗ - северо-западный.
Видимость - горизонтальная дальность видимости в метрах или километрах. При видимости от 1 до 10 км при отсутствии осадков обычно наблюдается дымка, при ухудшении видимости до 1 км и менее - туман. В сухую погоду видимость может ухудшаться дымом, пылью или мглою.
Явления - указаны атмосферные явления, наблюдавшиеся в срок или в последний час перед сроком; фигурными скобками обозначены явления, наблюдавшиеся между сроками (за 1-3 часа до срока); квадратными скобками обозначены град или гололедные отложения с указанием их диаметра в мм.
Облачность - указаны через наклонную черту общая и нижняя облачность в баллах и высота нижней границы облаков в метрах; квадратными скобками обозначены формы облаков: Ci - перистые, Cs - перисто-слоистые, Cc - перисто-кучевые, Ac - высококучевые, As - высокослоистые, Sc - слоисто-кучевые, Ns - слоисто-дождевые, Cu - кучевые, Cb - кучево-дождевые. Подробнее классификацию облаков см. в Атласе облаков (PDF).
T - Температура воздуха - температура, измеренная на высоте 2 м над землей.
Td - Температура точки росы - температура, при понижении до которой содержащийся в воздухе водяной пар достигнет насыщения.
f - Относительная влажность воздуха - влажноcть воздуха, измеренная на высоте 2 м над землей.
Te - Эффективная температура - температура, которую ощущает одетый по сезону человек в тени. Характеристика душности погоды. При расчете учитывается влияние влажности воздуха и скорости ветра на теплоощущения человека.
Tes - Эффективная температура на солнце - температура, которую ощущает человек, с поправкой на солнечный нагрев. Характеристика знойности погоды. Зависит от высоты солнца над горизонтом, облачности и скорости ветра. Ночью, в пасмурную погоду, а также при ветре 12 м/с и более поправка равна нулю.
P - Атмосферное давление - приведенное к уровню моря атмосферное давление.
Po - Атмосферное давление - измеренное на уровне метеостанции атмосферное давление.
Tmin - Минимальная температура - минимум температуры воздуха на высоте 2 м над землей.
Tmax - Максимальная температура - максимум температуры воздуха на высоте 2 м над землей.
R - Количество осадков - Количество выпавших осадков за период времени, мм. При наведении курсора мыши на число - период времени, за который выпало указанное количество осадков.
R24 - Количество осадков - Количество выпавших осадков за 24 часа, мм.
S - Снежный покров - Высота снежного покрова, см. При наведении курсора мыши на число - состояние снежного покрова и степень покрытия местности в баллах.